Temperature
15 15 15 16 16 16 16 16 16 16 16 16 16 16 16 16 16 15 15 15 15 15 15 15 15 15 15 15 15 15 15 15 15 15 14 14 14 14 14 14 13 13 13
15 15 15 15 15 15 15 15 16 16 16 16 16 16 16 15 15 15 15 15 15 15 15 15 15 15 15 15 15 15 15 15 15 15 14 14 14 14 14 14 13 13 13
15 15 15 15 15 15 15 15 15 16 16 16 15 15 15 15 15 15 15 15 15 15 15 15 15 15 15 15 15 15 15 15 15 14 14 13 13 13 13 13 13 13 13
15 15 15 15 15 15 15 15 15 15 15 15 15 15 15 15 15 15 15 15 15 15 15 15 15 15 15 15 15 15 15 15 15 14 13 13 13 13 13 13 13 13 13
14 14 15 15 15 15 15 15 15 15 15 15 15 15 15 15 15 15 15 15 15 15 15 15 15 15 15 15 15 15 15 15 14 14 13 13 13 13 13 13 13 13 12
14 14 14 15 15 15 15 15 15 15 15 15 15 15 15 15 15 15 15 15 15 15 15 15 15 15 15 15 15 14 14 14 14 13 13 13 12 13 13 13 12 12 12
14 14 14 14 14 14 14 14 15 15 15 15 15 15 15 15 15 15 15 15 14 14 14 14 14 14 14 14 14 14 14 14 13 13 13 12 12 12 12 12 12 12 12
14 14 14 14 14 14 14 14 14 14 14 14 15 15 15 15 15 15 14 14 14 14 14 14 14 14 14 14 14 14 14 14 13 13 13 12 12 12 12 12 12 11 11
13 13 13 14 14 14 14 14 14 14 14 14 14 14 14 14 14 14 14 14 14 14 14 14 14 14 14 14 14 14 14 13 13 13 12 12 12 12 11 11 11 11 11
13 13 13 13 13 13 13 14 14 14 14 14 14 14 14 14 14 14 14 14 14 14 14 14 13 14 13 13 13 13 13 13 12 12 12 12 12 12 11 11 11 11 11
13 13 13 13 13 13 13 13 13 13 13 13 13 13 13 13 13 13 13 13 13 13 13 13 13 13 13 13 13 13 13 12 12 12 12 12 12 11 11 11 11 11 10
12 13 13 13 13 13 13 13 13 13 13 13 13 13 13 13 13 13 13 13 13 13 13 13 13 13 13 13 13 13 12 12 12 12 12 12 11 11 11 11 11 10 10
12 12 12 12 12 12 12 12 12 12 12 12 12 13 13 12 12 12 12 12 12 12 12 13 13 13 13 12 12 12 12 12 12 11 11 11 11 11 11 10 10 10 10
12 12 12 12 12 12 12 12 12 12 12 12 12 12 12 12 12 12 12 12 12 12 12 12 12 12 12 12 12 12 12 11 11 11 11 11 11 11 11 10 10 10 10
11 11 11 12 12 12 12 12 12 12 12 12 12 12 12 12 12 12 12 12 12 12 12 12 12 12 12 12 12 12 11 11 11 11 11 11 11 11 11 10 10 10 9
11 11 11 11 11 11 11 11 11 11 11 11 11 11 11 12 11 11 11 11 11 11 11 11 11 11 11 11 11 11 11 11 11 11 11 11 11 11 10 10 10 10 9
10 11 11 11 11 11 11 11 11 11 11 11 11 11 11 11 11 11 11 11 11 11 11 11 11 11 11 11 11 11 11 11 11 11 11 11 10 10 10 10 10 10 9
10 10 10 10 10 10 11 11 10 10 10 10 10 10 11 11 11 11 10 11 10 10 10 10 10 10 10 10 10 10 10 10 10 10 10 10 10 10 10 10 10 9 9
9 10 10 10 10 10 10 10 10 10 10 10 10 10 10 10 10 10 10 10 10 10 10 10 10 10 10 10 10 10 10 10 10 9 9 9 9 9 9 9 9 9 9
9 9 9 9 9 9 9 9 9 9 10 10 10 10 10 10 10 10 10 10 9 9 9 9 9 9 9 9 9 9 9 9 9 9 9 9 9 9 9 8 8 8 8
8 8 9 9 9 9 9 9 9 9 9 9 9 9 9 9 9 9 9 9 9 9 9 9 9 8 8 8 8 8 8 8 8 8 8 8 8 8 8 8 8 8 8
7 8 8 8 8 8 8 8 9 9 9 9 9 9 9 9 9 9 9 9 9 8 8 8 8 8 8 8 7 7 7 7 8 8 8 8 8 8 8 8 8 7 7
7 7 7 7 8 8 8 8 8 8 8 8 8 8 8 8 8 8 8 8 8 8 8 8 8 7 7 7 7 6 6 7 6 7 7 7 7 7 7 7 7 7 7
6 6 7 7 7 7 7 7 7 7 7 8 8 8 8 8 8 8 8 8 8 7 7 7 7 7 7 7 7 6 6 6 6 6 6 6 7 7 7 7 7 6 6
6 6 6 6 6 7 7 7 7 7 7 7 7 7 7 7 7 7 7 7 7 7 7 7 6 6 6 6 6 6 6 6 6 5 5 6 6 6 6 6 6 6 6
5 6 6 6 6 6 6 6 6 6 6 6 6 6 7 7 7 6 6 7 7 6 6 6 6 6 6 6 6 6 5 5 5 5 5 5 5 5 5 6 5 5 5
Wind_Speed
4 4 5 5 6 7 8 9 10 10 10 11 11 11 11 10 10 10 10 11 11 11 11 12 12 12 12 13 12 12 12 13 12 12 12 12 12 11 11 10 8 10 11
5 6 6 7 7 7 8 9 9 10 10 10 11 10 10 10 10 10 10 10 11 11 11 11 12 12 12 12 12 12 12 12 11 11 10 11 11 11 11 10 10 10 10
5 6 7 7 7 8 8 9 8 9 9 10 10 10 10 10 9 9 9 10 10 10 10 11 11 11 11 11 11 11 11 11 10 9 7 8 9 10 10 9 9 9 9
5 6 7 8 8 8 8 9 8 9 10 10 10 10 10 9 9 9 9 9 10 10 10 10 10 11 11 11 10 10 10 10 9 6 6 7 8 9 9 8 8 8 8
5 5 6 8 8 8 8 9 8 8 9 9 9 9 9 9 9 9 8 8 9 9 10 10 10 10 10 10 10 10 9 9 7 5 7 6 7 8 7 7 7 7 7
5 5 7 7 8 8 8 8 8 8 9 9 9 9 9 9 9 8 8 8 8 9 9 10 10 10 10 10 10 9 9 7 6 6 6 6 6 6 6 6 6 6 6
5 5 7 7 8 8 8 8 9 8 8 9 9 9 9 9 9 8 8 7 8 8 9 9 9 9 9 9 9 9 8 6 5 5 5 5 6 6 5 5 4 4 5
4 5 6 7 7 8 8 8 7 8 8 9 9 9 9 9 9 8 8 7 7 8 8 9 9 9 9 9 8 8 7 5 4 4 4 4 5 4 4 4 4 4 4
2 3 4 5 7 7 7 7 7 7 8 8 9 8 9 9 9 8 8 7 7 7 8 8 8 8 8 8 8 7 6 3 3 3 3 3 4 3 3 3 3 3 3
2 2 2 3 5 6 6 7 7 6 7 7 8 8 8 9 8 8 7 6 7 7 7 7 8 8 8 8 7 6 5 4 2 2 2 3 3 2 2 2 2 2 2
1 1 2 2 3 4 5 6 6 6 6 7 7 8 8 7 7 7 7 6 7 7 7 7 7 8 7 7 7 6 4 2 2 2 2 3 1 1 0 1 1 1 2
1 1 1 2 2 3 4 5 5 5 5 6 6 7 6 6 5 6 7 7 7 7 7 7 7 7 6 5 6 5 3 2 2 1 2 2 0 0 1 1 1 2 2
2 2 1 2 3 3 3 4 3 3 4 4 5 6 6 5 5 5 5 5 6 6 5 6 6 4 4 3 3 3 2 2 2 1 1 1 1 2 2 2 2 3 3
2 2 2 2 2 2 2 3 3 3 3 3 5 6 5 4 4 4 3 4 4 4 3 3 3 3 3 3 3 3 2 1 2 1 1 1 2 2 3 3 3 4 4
3 3 3 2 3 2 2 2 3 3 3 4 4 5 5 4 4 4 3 3 3 3 3 2 2 2 2 2 2 2 3 3 2 2 1 1 2 3 4 4 4 4 5
4 3 3 3 3 3 3 3 3 3 3 4 4 4 5 4 4 4 4 3 3 3 2 2 2 2 2 2 2 2 2 3 3 3 3 2 3 3 4 5 5 5 6
4 3 3 3 3 4 4 3 3 3 3 3 4 4 5 5 5 4 4 3 3 3 3 2 2 2 2 2 2 2 2 3 3 3 4 3 3 4 4 5 6 6 6
4 3 3 3 3 3 3 3 3 3 3 3 4 4 5 6 6 4 3 3 3 3 3 2 3 2 2 2 2 2 2 2 4 4 4 4 4 4 4 5 6 6 7
4 3 3 3 3 3 2 2 3 3 3 3 4 4 5 6 6 4 3 3 4 3 3 3 2 3 3 2 2 3 3 3 3 3 4 4 4 4 4 4 5 6 7
3 3 3 3 4 3 2 2 2 3 3 3 3 4 5 5 6 5 4 4 4 3 3 3 3 3 3 2 2 3 3 4 3 4 4 4 4 5 5 4 4 5 6
2 3 3 3 4 3 3 3 3 3 3 3 3 4 5 6 6 5 4 5 4 4 4 4 3 3 3 2 2 3 3 4 4 4 4 4 5 5 5 5 5 4 5
3 2 2 3 4 4 4 3 3 3 2 3 3 4 4 5 5 5 5 5 5 4 5 5 4 3 3 3 2 3 3 3 3 4 4 4 5 4 5 5 5 5 5
4 3 2 3 3 3 4 3 3 2 2 3 3 4 4 5 6 6 6 5 5 5 5 6 6 5 4 4 4 3 3 3 2 3 5 5 4 4 4 5 6 6 6
4 4 3 3 2 3 4 4 5 4 5 5 4 4 4 5 6 6 6 6 5 5 6 6 6 6 5 5 4 4 4 3 3 2 3 4 5 5 6 5 5 6 7
5 4 3 3 2 2 4 6 6 5 5 4 4 5 4 4 5 6 6 5 5 5 6 7 6 7 6 6 5 4 4 4 5 5 5 4 4 4 5 5 5 5 6
6 5 4 3 3 2 2 4 6 6 6 5 5 5 4 4 4 6 6 6 6 5 6 7 7 7 6 7 6 5 5 4 4 5 6 6 6 5 5 5 5 5 5
Wind_Direction
162 157 135 137 130 122 121 128 132 131 131 129 127 127 127 125 123 122 120 118 118 115 114 113 113 112 108 105 102 98 95 92 89 87 87 85 83 83 81 76 74 79 75
163 159 137 134 128 127 126 122 127 130 131 130 129 127 126 127 124 122 123 121 119 116 116 117 116 114 111 107 103 99 96 94 90 86 87 90 83 81 79 72 62 72 74
157 153 143 134 128 127 130 125 128 132 132 133 131 129 126 126 128 126 124 123 122 119 117 116 118 118 114 109 105 102 99 95 91 92 99 94 88 81 77 72 71 74 72
159 154 148 134 130 127 132 131 126 135 134 134 132 130 129 126 126 127 125 123 125 124 120 115 113 118 117 113 111 107 103 98 95 101 97 89 88 82 78 74 73 75 72
161 152 138 135 132 128 131 134 131 135 136 131 134 133 129 128 127 126 127 126 127 126 123 119 116 113 118 119 117 112 109 106 106 105 90 87 85 83 79 76 72 72 72
168 158 141 138 135 130 131 137 135 130 135 132 133 135 132 130 129 126 125 127 129 129 126 123 120 117 117 120 117 113 109 114 127 101 93 88 84 86 82 77 72 71 70
173 161 149 144 141 138 134 135 139 132 134 134 132 135 133 131 128 125 124 125 130 132 128 127 125 122 123 120 120 116 113 113 108 98 89 84 78 81 84 80 77 70 66
170 163 154 150 145 139 135 132 135 135 131 136 132 132 132 129 126 125 124 122 128 129 129 128 125 127 128 126 122 122 119 124 115 105 98 90 80 79 80 79 70 64 67
142 146 149 158 154 143 135 136 132 137 134 136 134 134 135 132 129 130 127 123 129 131 133 133 130 130 127 123 118 114 119 125 126 106 103 95 88 85 80 81 68 55 61
134 144 154 158 159 157 151 137 135 133 135 135 136 132 137 135 135 132 128 122 128 129 130 131 129 127 125 125 120 116 125 149 126 117 107 92 93 91 79 71 59 49 37
167 171 160 154 151 157 155 147 146 140 137 140 144 134 144 150 147 143 129 121 127 129 130 133 132 131 132 132 128 126 147 146 134 119 93 85 97 110 77 26 10 4 358
230 209 183 162 159 160 157 158 166 167 157 162 161 156 161 156 149 145 132 125 129 129 132 129 133 137 143 142 140 149 155 160 150 138 92 84 195 251 284 304 312 311 311
235 222 219 179 165 163 164 170 172 174 172 175 171 162 162 155 149 146 141 134 137 137 138 134 140 142 144 144 157 165 164 172 166 159 116 116 256 269 270 280 293 299 298
237 239 236 186 170 173 164 174 179 176 180 179 176 166 164 159 156 155 152 150 150 149 143 146 157 152 147 153 169 177 182 199 200 193 110 130 278 276 281 283 288 293 293
239 237 237 206 183 174 172 179 189 190 187 183 181 177 170 164 166 165 161 152 150 148 154 156 165 166 168 169 181 194 197 208 221 218 192 154 267 280 282 286 288 287 289
245 230 225 213 199 185 183 185 193 196 187 189 185 181 175 169 170 170 166 163 159 158 158 172 181 183 192 194 203 211 223 224 226 224 233 230 239 266 279 282 283 284 282
255 236 227 222 206 198 194 195 200 203 195 191 188 182 177 172 170 173 173 172 173 168 161 172 181 188 201 209 225 232 234 241 238 236 237 246 246 246 266 281 283 284 284
255 246 230 227 221 211 201 197 204 205 197 195 194 189 183 175 172 174 176 179 178 170 167 182 189 194 208 224 238 243 241 243 250 251 247 242 246 251 249 266 281 283 288
248 246 239 227 225 222 212 206 209 207 202 196 193 190 188 181 177 174 179 180 177 181 186 192 203 209 213 230 246 253 252 248 247 248 254 248 244 249 255 252 263 276 286
252 245 244 235 228 220 211 213 205 198 204 203 198 193 190 187 183 182 185 186 185 187 191 198 211 219 221 231 248 260 262 256 249 247 254 249 245 249 257 265 265 264 271
259 251 252 255 235 219 214 212 203 207 206 207 207 201 199 196 191 193 190 189 190 194 198 202 204 213 221 224 253 265 261 247 244 242 248 250 247 249 256 266 270 275 276
327 306 275 260 242 222 216 208 206 207 215 218 215 204 204 200 196 196 195 195 196 198 200 202 204 218 222 223 243 264 263 246 233 242 249 253 254 249 256 264 264 269 279
333 316 301 277 247 227 214 199 193 194 206 216 221 211 214 208 202 203 203 203 202 203 206 206 208 221 227 231 237 246 257 254 272 229 236 244 253 267 267 270 264 265 269
327 316 307 290 260 237 218 208 205 210 214 222 222 217 219 218 209 205 206 207 207 210 212 216 217 225 225 230 234 246 265 280 266 262 234 240 256 265 268 268 265 266 266
333 325 315 304 287 254 227 218 216 222 225 220 217 217 220 221 214 209 208 212 215 218 219 223 228 228 229 232 233 243 249 260 260 262 268 266 262 259 263 264 259 260 261
342 335 327 316 305 291 258 232 221 221 221 218 220 219 220 223 215 212 212 216 220 223 227 229 232 230 232 237 238 238 242 246 248 251 263 272 275 273 265 262 264 264 264
Height
1504 1506 1507 1508 1510 1511 1512 1514 1514 1515 1516 1517 1518 1518 1519 1519 1520 1520 1521 1521 1522 1522 1522 1522 1523 1523 1523 1523 1523 1523 1523 1523 1523 1523 1523 1522 1522 1522 1522 1522 1522 1522 1522
1504 1505 1506 1508 1510 1511 1512 1513 1514 1515 1516 1517 1518 1518 1519 1520 1520 1521 1521 1522 1522 1522 1523 1523 1523 1523 1523 1523 1523 1524 1524 1524 1524 1524 1524 1524 1524 1523 1523 1523 1523 1523 1522
1504 1505 1506 1508 1509 1510 1512 1513 1514 1515 1516 1517 1518 1518 1519 1520 1521 1521 1522 1522 1522 1523 1523 1523 1524 1524 1524 1524 1524 1524 1524 1524 1524 1524 1525 1525 1525 1524 1524 1524 1523 1523 1523
1504 1505 1506 1507 1509 1510 1511 1512 1513 1515 1516 1516 1517 1518 1519 1520 1521 1521 1522 1522 1523 1523 1524 1524 1524 1524 1524 1524 1524 1524 1524 1525 1525 1525 1526 1526 1526 1525 1524 1524 1524 1524 1523
1503 1505 1505 1507 1508 1509 1510 1512 1513 1514 1515 1516 1517 1518 1519 1520 1521 1521 1522 1523 1523 1524 1524 1524 1524 1524 1525 1525 1525 1525 1525 1525 1526 1526 1526 1526 1526 1526 1525 1525 1524 1524 1524
1503 1504 1505 1506 1507 1508 1510 1511 1512 1513 1514 1515 1517 1518 1519 1520 1520 1521 1522 1523 1523 1524 1524 1524 1525 1525 1525 1525 1526 1526 1525 1526 1526 1527 1527 1527 1526 1526 1526 1525 1525 1525 1524
1503 1504 1504 1505 1507 1508 1509 1510 1511 1512 1514 1515 1516 1517 1518 1519 1520 1521 1522 1522 1523 1523 1524 1524 1525 1525 1525 1526 1526 1526 1526 1526 1527 1527 1527 1527 1526 1526 1526 1525 1525 1525 1524
1502 1503 1504 1505 1506 1507 1508 1509 1511 1512 1513 1514 1515 1516 1517 1518 1519 1520 1521 1522 1523 1523 1524 1524 1525 1525 1526 1526 1526 1526 1526 1527 1527 1527 1527 1527 1526 1526 1525 1525 1525 1525 1524
1501 1502 1503 1504 1505 1506 1507 1508 1510 1511 1512 1513 1514 1515 1517 1518 1519 1520 1520 1521 1522 1523 1523 1524 1524 1525 1525 1526 1526 1526 1526 1527 1527 1527 1527 1527 1526 1526 1525 1525 1524 1524 1524
1499 1501 1502 1503 1504 1505 1506 1507 1508 1510 1511 1512 1513 1514 1516 1517 1518 1519 1520 1520 1521 1522 1523 1523 1524 1524 1525 1525 1525 1526 1526 1526 1527 1527 1526 1526 1526 1525 1525 1524 1524 1523 1523
1498 1499 1500 1501 1502 1503 1505 1506 1507 1509 1510 1511 1512 1513 1514 1516 1517 1518 1518 1519 1520 1521 1522 1522 1523 1524 1524 1525 1525 1525 1525 1525 1526 1526 1525 1525 1525 1524 1524 1523 1523 1522 1522
1496 1497 1498 1499 1500 1501 1503 1504 1506 1507 1508 1509 1511 1512 1513 1514 1515 1516 1517 1518 1519 1520 1521 1521 1522 1523 1523 1523 1524 1524 1524 1524 1524 1524 1524 1523 1523 1523 1523 1522 1521 1521 1520
1494 1494 1495 1497 1498 1499 1501 1502 1504 1505 1506 1507 1509 1510 1511 1512 1514 1515 1516 1517 1518 1518 1519 1520 1521 1521 1521 1522 1522 1522 1523 1523 1523 1522 1522 1522 1522 1521 1521 1520 1520 1519 1518
1491 1492 1493 1494 1495 1497 1498 1500 1502 1503 1504 1505 1507 1508 1509 1510 1511 1513 1514 1515 1516 1517 1517 1518 1519 1519 1520 1520 1521 1521 1521 1521 1521 1520 1520 1520 1520 1519 1519 1518 1518 1517 1516
1489 1490 1491 1492 1493 1495 1496 1498 1499 1501 1501 1503 1504 1505 1507 1508 1509 1510 1512 1512 1513 1514 1515 1516 1517 1517 1518 1518 1519 1519 1519 1518 1518 1518 1518 1518 1517 1517 1516 1516 1515 1515 1514
1487 1488 1489 1489 1491 1492 1494 1495 1497 1498 1499 1500 1502 1503 1504 1505 1507 1508 1509 1510 1511 1512 1513 1514 1515 1515 1515 1516 1516 1516 1516 1516 1516 1516 1516 1515 1515 1515 1514 1513 1513 1512 1512
1485 1485 1487 1487 1489 1490 1491 1493 1494 1496 1497 1498 1499 1500 1501 1502 1504 1505 1507 1507 1509 1510 1510 1511 1512 1513 1513 1513 1513 1513 1513 1513 1513 1513 1513 1512 1512 1511 1511 1510 1510 1509 1508
1482 1483 1484 1485 1486 1488 1489 1490 1492 1493 1494 1495 1496 1497 1499 1500 1501 1503 1504 1505 1506 1507 1508 1509 1509 1510 1510 1510 1510 1510 1510 1510 1510 1510 1509 1509 1509 1508 1508 1507 1507 1506 1505
1480 1480 1481 1483 1484 1485 1486 1487 1489 1490 1491 1492 1493 1494 1496 1497 1498 1500 1501 1502 1503 1504 1505 1506 1506 1507 1507 1507 1507 1507 1506 1506 1506 1506 1506 1506 1505 1505 1505 1504 1503 1502 1502
1477 1477 1478 1479 1480 1482 1483 1484 1485 1487 1488 1489 1490 1491 1493 1494 1495 1497 1498 1499 1500 1501 1501 1502 1503 1503 1504 1504 1503 1503 1503 1503 1502 1502 1502 1502 1502 1501 1501 1500 1500 1499 1498
1474 1474 1475 1475 1476 1478 1479 1480 1481 1483 1484 1485 1487 1488 1489 1491 1492 1493 1494 1495 1496 1497 1498 1499 1500 1500 1500 1500 1500 1500 1499 1499 1498 1498 1498 1498 1498 1498 1497 1497 1496 1495 1494
1471 1471 1471 1472 1473 1474 1476 1477 1478 1480 1481 1482 1483 1484 1486 1487 1488 1490 1491 1492 1493 1493 1494 1495 1496 1496 1496 1497 1498 1497 1496 1496 1494 1494 1494 1494 1494 1494 1493 1492 1492 1491 1490
1469 1469 1469 1469 1470 1471 1473 1474 1475 1476 1477 1479 1480 1481 1482 1484 1485 1486 1487 1488 1489 1490 1490 1491 1492 1492 1493 1494 1494 1495 1494 1492 1491 1490 1489 1490 1489 1489 1488 1488 1487 1487 1486
1468 1468 1467 1467 1468 1469 1470 1471 1471 1472 1473 1474 1476 1477 1479 1480 1481 1482 1483 1484 1485 1486 1487 1488 1488 1489 1490 1490 1490 1490 1491 1490 1490 1487 1486 1486 1485 1484 1484 1483 1483 1483 1482
1467 1466 1465 1465 1465 1466 1467 1468 1468 1469 1470 1471 1473 1473 1475 1476 1477 1478 1479 1480 1481 1482 1482 1484 1484 1485 1485 1486 1486 1486 1486 1486 1486 1485 1482 1481 1481 1481 1480 1479 1479 1478 1477
1465 1464 1463 1463 1463 1463 1464 1465 1465 1466 1466 1467 1468 1469 1471 1472 1473 1474 1475 1476 1477 1478 1478 1479 1480 1480 1481 1482 1482 1482 1482 1482 1482 1481 1479 1477 1477 1477 1476 1475 1474 1474 1473